Flag for Switzerland Weather past 2 weeks in Thônex, Geneva, Switzerland

Now
41 °F

Broken clouds.


Feels Like: 36 °F
Forecast: 14 / 38 °F
Wind: 8 mph from Northeast

Location: Geneva Cointrin Airport

Current Time: Jan 27, 2015 at 4:20:29 PM

Latest Report: Jan 27, 2015 at 3:50 PM


Visibility: N/A

Pressure: 30.21 "Hg

Humidity: 61%

Dew point: 28 °F

Location of ThônexLocation

Historic Weather in Thônex — Graph

°F

Thônex temperature yesterday

Maximum temperature yesterday: 36 °F (at 1:50 AM)
Minimum temperature yesterday: 32 °F (at 3:50 PM)
Average temperature yesterday: 34 °F

Past Weeks' High & Low Weather Summary

 TemperatureHumidityPressure
High55 °F (Jan 13, 3:20 PM)100% (Jan 15, 12:20 AM)30.36 "Hg (Jan 15, 12:20 AM)
Low25 °F (Jan 18, 4:50 AM)46% (Jan 12, 3:20 PM)29.68 "Hg (Jan 16, 2:20 PM)
Average37 °F82%30.02 "Hg
* Reported Jan 12 3:20 PM — Jan 27 3:20 PM, Thônex, Weather by CustomWeather, © 2014

Note: Actual official high and low records may vary slightly from our data, if they occured in-between our weather recording intervals... More about our weather records

Advertising

Thônex weather history for previous 24 hours

 ConditionsComfort  
Time TempWeatherWind HumidityBarometerVisibility
3:20 PM
Jan 27
41 °FBroken clouds.8 mph57%30.21 "HgN/A
2:50 PM41 °FBroken clouds.8 mph66%30.21 "HgN/A
2:20 PM41 °FPartly sunny.7 mph66%30.21 "HgN/A
1:50 PM39 °FPartly sunny.5 mph81%30.21 "HgN/A
1:20 PM39 °FPartly sunny.2 mph87%30.21 "HgN/A
12:50 PM37 °FPartly sunny.3 mph93%30.21 "HgN/A
12:20 PM37 °FPartly sunny.1 mph93%30.21 "HgN/A
11:50 AM37 °FBroken clouds.2 mph93%30.24 "HgN/A
11:20 AM34 °FBroken clouds.1 mph100%30.24 "Hg4 mi
10:50 AM34 °FPartly sunny.3 mph100%30.21 "Hg4 mi
10:20 AM34 °FPartly sunny.1 mph100%30.21 "Hg4 mi
9:50 AM32 °FPartly sunny.3 mph100%30.21 "Hg4 mi
9:20 AM32 °FPartly sunny.3 mph100%30.24 "Hg6 mi
8:50 AM32 °FScattered clouds.2 mph100%30.21 "Hg6 mi
8:20 AM32 °FPartly sunny.1 mph100%30.21 "Hg6 mi
7:50 AM32 °FPassing clouds.2 mph100%30.21 "Hg5 mi
7:20 AM32 °FPartly cloudy.1 mph100%30.21 "HgN/A
6:50 AM32 °FPassing clouds.2 mph100%30.21 "HgN/A
6:20 AM32 °FPassing clouds.2 mph100%30.21 "Hg5 mi
5:50 AM32 °FSprinkles. Passing clouds.2 mph100%30.21 "Hg4 mi
5:20 AM32 °FSprinkles. Passing clouds.2 mph100%30.21 "Hg5 mi
4:50 AM32 °FPassing clouds.2 mph100%30.21 "Hg6 mi
4:20 AM32 °FPassing clouds.2 mph100%30.21 "Hg6 mi
3:50 AM32 °FPartly cloudy.2 mph100%30.21 "Hg4 mi
3:20 AM32 °FPartly cloudy.2 mph100%30.21 "Hg4 mi
2:50 AM32 °FPassing clouds.1 mph100%30.21 "Hg4 mi
1:50 AM32 °FPassing clouds.2 mph100%30.24 "Hg4 mi
1:20 AM32 °FPassing clouds.2 mph100%30.24 "Hg4 mi
12:50 AM32 °FPassing clouds.2 mph100%30.24 "Hg4 mi
12:20 AM32 °FPartly cloudy.2 mph100%30.24 "Hg4 mi
11:50 PM
Jan 26
32 °FPartly cloudy.2 mph100%30.24 "Hg4 mi
11:20 PM32 °FPartly cloudy.2 mph100%30.24 "Hg4 mi
10:50 PM32 °FPassing clouds.2 mph100%30.27 "Hg4 mi
10:20 PM32 °FPassing clouds.2 mph100%30.24 "Hg4 mi
9:50 PM32 °FLight snow. Passing clouds.3 mph100%30.27 "Hg4 mi
9:20 PM32 °FLight snow. Partly cloudy.2 mph100%30.27 "Hg3 mi
8:50 PM32 °FLight snow. Partly cloudy.2 mph100%30.27 "Hg2 mi
8:20 PM32 °FLight snow. Passing clouds.2 mph100%30.27 "Hg2 mi
7:50 PM32 °FLight snow. Partly cloudy.3 mph100%30.27 "Hg2 mi
7:20 PM32 °FLight snow. Passing clouds.5 mph100%30.27 "Hg2 mi
6:50 PM32 °FLight snow. Passing clouds.3 mph100%30.27 "Hg2 mi
6:20 PM32 °FLight snow. Partly cloudy.5 mph100%30.27 "Hg1 mi
5:50 PM32 °FLight snow. Partly cloudy.3 mph100%30.27 "Hg1 mi
5:20 PM32 °FSnow. Broken clouds.5 mph100%30.27 "Hg1 mi
4:50 PM32 °FSnow. Broken clouds.3 mph100%30.30 "Hg1 mi
4:20 PM32 °FSnow. Partly sunny.2 mph93%30.30 "Hg1 mi
Weather by CustomWeather, © 2014

See weather overviewHow to use our weather pages